SCP
0 0 0 0 0 -0 0 0 0 -0 -0 -0 -0 -0 0 0 0 0 0 0 0 0 0 -0 -0 -0 -0 0 0 0 0 0
0 0 0 0 0 0 -0 0 0 -0 -0 -0 -0 0 0 0 0 0 0 0 0 0 0 0 0 0 0 0 0 0 0 0
-0 0 0 0 0 -0 -0 0 0 0 -0 -0 0 0 0 0 0 0 0 0 0 0 0 0 0 0 0 0 0 0 0 0
-0 -0 0 0 0 -0 -0 -0 -0 -0 0 0 0 0 0 0 0 0 0 0 0 0 0 0 0 0 0 0 0 0 0 0
-0 -0 0 0 0 0 -0 -0 -0 -0 -0 0 0 0 0 0 0 0 0 0 0 0 0 0 0 0 0 0 0 0 0 0
-0 -0 -0 -0 -0 -0 -0 -0 -0 -0 0 0 0 0 0 0 0 0 0 0 0 0 0 0 0 0 0 0 0 0 0 0
-0 -0 -0 -0 -0 -0 -0 -0 0 0 0 0 0 0 0 0 0 0 0 0 0 1 1 1 0 0 0 0 0 0 0 0
-0 -0 -0 -0 -0 -0 -0 0 0 0 0 0 0 0 0 0 0 0 0 1 1 1 0 1 0 0 0 0 0 0 0 0
-0 -0 -0 -0 -0 -0 0 0 0 0 0 0 0 0 0 0 0 0 0 1 1 0 0 0 0 0 0 0 0 0 0 0
0 -0 -0 -0 -0 -0 -0 0 0 0 0 -0 0 0 0 0 0 0 0 0 0 0 0 0 0 0 0 0 0 0 0 0
0 0 -0 -0 0 0 0 0 -0 -0 -0 0 0 0 1 0 0 0 0 0 0 0 0 0 0 0 0 0 0 0 0 0
-0 -0 -0 0 0 0 0 0 0 0 0 0 0 1 1 0 0 1 1 0 0 0 0 0 0 0 0 0 0 0 0 0
-0 -0 -0 0 0 0 0 0 0 0 0 0 0 1 1 1 1 1 1 0 0 0 0 0 0 0 0 0 0 0 0 0
-0 0 0 0 0 0 0 0 0 0 0 0 1 1 1 1 1 1 1 0 0 0 0 0 0 0 0 0 0 0 0 0
0 0 0 0 0 0 1 1 1 1 1 1 1 2 2 1 1 1 0 0 0 0 0 0 0 0 0 0 0 0 0 0
-0 0 0 1 1 1 1 1 1 1 1 1 2 2 1 1 1 0 0 0 0 0 0 0 0 0 0 0 0 0 0 0
-0 0 1 1 2 1 2 2 2 1 1 2 1 1 1 1 1 0 0 0 0 0 0 0 0 0 0 0 0 0 0 0
1 0 1 1 3 3 3 3 3 2 3 2 2 2 1 1 0 0 0 0 0 0 0 0 0 0 0 0 0 0 0 0
4 4 4 3 4 4 5 4 3 4 3 3 2 1 1 0 0 0 0 0 0 0 0 0 0 0 0 0 0 0 0 0
Wind_Speed_500mb
38 43 43 41 38 36 34 31 27 22 18 13 11 9 8 6 4 2 5 1 1 2 4 3 4 7 11 14 17 20 23 29
44 45 43 39 36 34 31 28 24 20 16 13 9 7 6 3 0 4 5 2 2 2 3 5 7 11 14 18 21 26 32 37
41 39 40 38 35 32 28 25 23 20 16 12 9 7 5 3 3 6 6 5 5 6 8 11 13 16 20 23 27 32 36 38
32 30 32 36 35 31 27 24 22 19 15 12 9 8 5 5 5 7 7 8 9 11 13 15 18 22 26 29 33 35 30 35
33 21 23 32 32 30 28 25 21 18 16 14 11 9 7 6 6 3 9 11 13 15 18 21 23 26 29 33 31 20 25 39
35 23 20 33 32 31 28 24 20 18 17 15 14 11 9 8 8 7 7 6 11 21 26 25 27 30 29 27 20 25 28 47
43 29 19 30 31 29 28 22 16 12 16 17 15 14 12 8 8 5 12 24 30 25 24 19 23 21 27 24 29 39 43 58
27 36 32 29 27 17 29 26 15 12 20 15 16 17 13 13 10 14 20 16 17 21 22 21 15 21 27 32 37 41 58 47
41 41 35 30 27 22 20 22 20 10 16 12 10 10 7 14 18 16 18 21 18 19 17 17 20 26 31 35 51 57 46 36
46 41 44 36 33 31 38 40 28 19 17 14 13 18 14 20 30 38 28 36 23 21 16 27 27 35 45 55 53 41 35 38
55 56 46 47 45 46 35 40 30 25 19 20 20 27 29 28 28 30 31 37 38 44 50 50 51 48 50 47 33 30 36 49
57 58 60 57 52 42 60 50 48 38 35 38 39 33 34 33 27 38 40 43 43 43 46 45 42 45 48 35 37 41 50 47
62 64 58 58 55 46 68 59 55 51 50 49 38 39 42 43 37 37 39 43 44 42 40 40 45 49 38 40 45 57 40 40
64 63 56 58 55 49 49 65 62 51 44 34 35 37 42 42 43 39 34 38 37 39 42 43 46 40 40 45 56 49 45 42
70 63 57 60 56 48 44 50 51 50 43 40 40 42 45 47 47 37 33 35 36 39 41 42 35 38 47 50 46 43 39 43
68 65 61 62 58 55 54 52 51 47 43 41 48 47 52 50 46 39 35 38 34 32 33 30 34 47 48 46 52 39 41 25
76 72 69 65 62 64 53 56 49 39 38 45 48 55 52 49 48 44 36 32 34 34 30 33 41 43 48 49 38 33 17 39
78 76 71 66 63 61 64 46 43 30 43 57 57 57 50 45 46 45 31 31 35 31 34 40 41 45 45 39 32 20 15 10
75 73 66 61 61 59 62 49 48 45 54 66 62 53 43 41 42 30 32 33 30 29 33 36 39 39 41 37 27 23 30 30
Wind_Direction_500mb
162 157 153 152 152 148 147 147 144 138 136 138 132 132 126 130 109 13 1 56 112 81 69 42 5 355 351 343 340 338 333 329
162 157 154 155 155 153 152 152 148 145 153 156 152 149 141 167 178 338 337 273 269 288 283 297 311 320 324 327 328 329 328 325
149 156 159 160 160 159 158 159 159 164 171 169 169 163 182 202 268 313 311 270 269 278 285 290 299 309 317 319 322 324 325 326
149 147 171 169 166 166 167 169 175 177 182 186 190 194 201 232 271 307 301 272 272 277 285 292 300 308 311 312 314 317 316 326
164 157 183 181 177 177 179 181 187 191 196 203 207 207 222 248 273 326 304 282 286 295 302 303 303 305 308 311 314 306 311 320
165 163 171 189 189 188 190 192 196 205 210 215 220 222 236 251 242 259 313 314 317 321 308 301 295 298 307 312 296 290 303 321
168 181 179 188 193 198 199 191 189 221 234 231 229 229 238 197 230 269 317 307 307 310 322 302 290 308 303 293 286 295 308 314
202 194 187 159 164 169 181 182 214 286 235 230 233 223 194 186 280 274 292 301 315 290 313 299 297 292 281 292 298 290 300 305
197 199 185 175 165 175 201 201 212 237 214 205 232 252 244 224 240 253 253 275 277 268 273 268 277 273 285 286 294 295 303 304
176 180 183 186 171 186 212 211 210 233 230 227 226 255 270 264 225 218 239 253 249 257 245 244 258 263 278 292 306 309 313 303
187 190 199 193 185 198 205 199 209 226 228 222 234 252 251 262 232 217 234 240 244 251 258 262 271 285 294 307 303 305 293 289
195 191 198 209 212 217 199 195 200 205 204 208 233 241 250 257 253 234 236 248 257 263 269 277 289 294 301 294 293 288 291 297
192 195 201 208 217 211 205 206 216 212 216 226 229 236 245 253 256 254 245 250 262 271 279 283 290 296 292 296 293 299 297 293
196 197 208 212 217 213 208 210 220 224 223 214 226 241 241 249 259 266 255 252 258 270 280 284 291 293 298 294 297 305 307 300
203 209 210 212 219 215 219 216 216 221 216 217 221 236 239 246 259 269 263 262 261 270 279 286 290 293 295 300 308 305 305 311
209 207 208 209 215 216 224 223 224 224 218 219 225 233 239 247 260 263 266 262 265 270 274 282 289 287 297 303 309 306 308 315
206 213 209 212 214 221 223 230 234 243 227 230 231 230 235 248 259 265 265 259 268 276 279 279 281 287 292 298 305 310 317 314
205 211 213 215 216 220 228 227 227 220 219 223 227 230 237 252 257 267 255 253 261 269 276 278 282 285 289 292 298 307 330 319
204 207 212 213 216 213 221 222 219 215 220 222 228 229 236 256 268 251 251 255 269 280 280 284 288 290 290 293 284 257 280 310
Wind_Speed_850mb
38 43 43 41 38 36 34 31 27 22 18 13 11 9 8 6 4 2 5 1 1 2 4 3 4 7 11 14 17 20 23 29
44 45 43 39 36 34 31 28 24 20 16 13 9 7 6 3 0 4 5 2 2 2 3 5 7 11 14 18 21 26 32 37
41 39 40 38 35 32 28 25 23 20 16 12 9 7 5 3 3 6 6 5 5 6 8 11 13 16 20 23 27 32 36 38
32 30 32 36 35 31 27 24 22 19 15 12 9 8 5 5 5 7 7 8 9 11 13 15 18 22 26 29 33 35 30 35
33 21 23 32 32 30 28 25 21 18 16 14 11 9 7 6 6 3 9 11 13 15 18 21 23 26 29 33 31 20 25 39
35 23 20 33 32 31 28 24 20 18 17 15 14 11 9 8 8 7 7 6 11 21 26 25 27 30 29 27 20 25 28 47
43 29 19 30 31 29 28 22 16 12 16 17 15 14 12 8 8 5 12 24 30 25 24 19 23 21 27 24 29 39 43 58
27 36 32 29 27 17 29 26 15 12 20 15 16 17 13 13 10 14 20 16 17 21 22 21 15 21 27 32 37 41 58 47
41 41 35 30 27 22 20 22 20 10 16 12 10 10 7 14 18 16 18 21 18 19 17 17 20 26 31 35 51 57 46 36
46 41 44 36 33 31 38 40 28 19 17 14 13 18 14 20 30 38 28 36 23 21 16 27 27 35 45 55 53 41 35 38
55 56 46 47 45 46 35 40 30 25 19 20 20 27 29 28 28 30 31 37 38 44 50 50 51 48 50 47 33 30 36 49
57 58 60 57 52 42 60 50 48 38 35 38 39 33 34 33 27 38 40 43 43 43 46 45 42 45 48 35 37 41 50 47
62 64 58 58 55 46 68 59 55 51 50 49 38 39 42 43 37 37 39 43 44 42 40 40 45 49 38 40 45 57 40 40
64 63 56 58 55 49 49 65 62 51 44 34 35 37 42 42 43 39 34 38 37 39 42 43 46 40 40 45 56 49 45 42
70 63 57 60 56 48 44 50 51 50 43 40 40 42 45 47 47 37 33 35 36 39 41 42 35 38 47 50 46 43 39 43
68 65 61 62 58 55 54 52 51 47 43 41 48 47 52 50 46 39 35 38 34 32 33 30 34 47 48 46 52 39 41 25
76 72 69 65 62 64 53 56 49 39 38 45 48 55 52 49 48 44 36 32 34 34 30 33 41 43 48 49 38 33 17 39
78 76 71 66 63 61 64 46 43 30 43 57 57 57 50 45 46 45 31 31 35 31 34 40 41 45 45 39 32 20 15 10
75 73 66 61 61 59 62 49 48 45 54 66 62 53 43 41 42 30 32 33 30 29 33 36 39 39 41 37 27 23 30 30
Wind_Direction_850mb
162 157 153 152 152 148 147 147 144 138 136 138 132 132 126 130 109 13 1 56 112 81 69 42 5 355 351 343 340 338 333 329
162 157 154 155 155 153 152 152 148 145 153 156 152 149 141 167 178 338 337 273 269 288 283 297 311 320 324 327 328 329 328 325
149 156 159 160 160 159 158 159 159 164 171 169 169 163 182 202 268 313 311 270 269 278 285 290 299 309 317 319 322 324 325 326
149 147 171 169 166 166 167 169 175 177 182 186 190 194 201 232 271 307 301 272 272 277 285 292 300 308 311 312 314 317 316 326
164 157 183 181 177 177 179 181 187 191 196 203 207 207 222 248 273 326 304 282 286 295 302 303 303 305 308 311 314 306 311 320
165 163 171 189 189 188 190 192 196 205 210 215 220 222 236 251 242 259 313 314 317 321 308 301 295 298 307 312 296 290 303 321
168 181 179 188 193 198 199 191 189 221 234 231 229 229 238 197 230 269 317 307 307 310 322 302 290 308 303 293 286 295 308 314
202 194 187 159 164 169 181 182 214 286 235 230 233 223 194 186 280 274 292 301 315 290 313 299 297 292 281 292 298 290 300 305
197 199 185 175 165 175 201 201 212 237 214 205 232 252 244 224 240 253 253 275 277 268 273 268 277 273 285 286 294 295 303 304
176 180 183 186 171 186 212 211 210 233 230 227 226 255 270 264 225 218 239 253 249 257 245 244 258 263 278 292 306 309 313 303
187 190 199 193 185 198 205 199 209 226 228 222 234 252 251 262 232 217 234 240 244 251 258 262 271 285 294 307 303 305 293 289
195 191 198 209 212 217 199 195 200 205 204 208 233 241 250 257 253 234 236 248 257 263 269 277 289 294 301 294 293 288 291 297
192 195 201 208 217 211 205 206 216 212 216 226 229 236 245 253 256 254 245 250 262 271 279 283 290 296 292 296 293 299 297 293
196 197 208 212 217 213 208 210 220 224 223 214 226 241 241 249 259 266 255 252 258 270 280 284 291 293 298 294 297 305 307 300
203 209 210 212 219 215 219 216 216 221 216 217 221 236 239 246 259 269 263 262 261 270 279 286 290 293 295 300 308 305 305 311
209 207 208 209 215 216 224 223 224 224 218 219 225 233 239 247 260 263 266 262 265 270 274 282 289 287 297 303 309 306 308 315
206 213 209 212 214 221 223 230 234 243 227 230 231 230 235 248 259 265 265 259 268 276 279 279 281 287 292 298 305 310 317 314
205 211 213 215 216 220 228 227 227 220 219 223 227 230 237 252 257 267 255 253 261 269 276 278 282 285 289 292 298 307 330 319
204 207 212 213 216 213 221 222 219 215 220 222 228 229 236 256 268 251 251 255 269 280 280 284 288 290 290 293 284 257 280 310